Regional Weather Roundup
Issued by NWS

Home | Current Version | Previous Version | Text Only | Print | Product List | Glossary Off
Versions: 1 2 3 4 5 6 7 8 9 10 11 12 13 14 15 16 17 18 19 20 21 22 23 24 25 26 27 28 29 30 31 32 33 34 35 36 37 38 39 40 41 42 43 44 45 46 47 48 49 50

000
ASUS45 KTFX 211119
RWRMT
MONTANA HOURLY WEATHER ROUNDUP
NATIONAL WEATHER SERVICE GREAT FALLS MT
519 AM MDT TUE OCT 21 2014

NOTE: "FAIR" INDICATES FEW OR NO CLOUDS BELOW 12000 FEET WITH NO
SIGNIFICANT WEATHER AND/OR OBSTRUCTIONS TO VISIBILITY.

* THESE STATIONS ARE NOT UNDER NWS QUALITY CONTROL. THEY DO NOT
   REPORT WEATHER SUCH AS PRECIPITATION OR FOG.

MTZ001>007-043-211200-
WEST OF THE DIVIDE
CITY           SKY/WX    TMP DP  RH WIND       PRES   REMARKS
KALISPELL      CLOUDY    39  37  93 CALM      29.76R
MISSOULA       CLOUDY    54  39  57 N10       29.78R
BUTTE          MOCLDY    46  34  63 S3        29.79F
MULLAN PASS    FOG       37  37 100 NW8       29.84F VSB 1/2  WCI  31
* ESSEX        N/A       40  36  86 N/A        N/A
* LINCOLN      N/A       34  30  85 NW2        N/A
* POLSON       N/A       49  40  71 SW2        N/A
* RONAN APT    CLOUDY    48  43  83 N/A        N/A
* SEELEY LAKE  N/A       41  35  79 NE2        N/A
* THOMP F APT  CLOUDY    52  33  48 E6G15      N/A
$$

MTZ008-052>055-211200-
SOUTHWEST MONTANA
CITY           SKY/WX    TMP DP  RH WIND       PRES   REMARKS
BOZEMAN        PTCLDY    41  34  76 CALM      29.77R
DILLON         MOCLDY    52  36  55 N5        29.77F
W YELLOWSTONE  CLOUDY    28  28 100 CALM      29.93S
* THREE FORKS  PTCLDY    39  39 100 N/A        N/A
* BOULDER HILL N/A       51  29  43 S5         N/A
* MONIDA PASS  N/A       47  33  58 SE4        N/A
* RAYNOLDS PAS N/A       46  28  50 SE16G23    N/A
* WHITEHALL    N/A       45  32  60 N6G11      N/A
* WISE RIVER   N/A       38  31  76 W4G9       N/A
$$

MTZ009>010-012-014-046-048-049-054-211200-
EAST SLOPES AND CENTRAL MONTANA
CITY           SKY/WX    TMP DP  RH WIND       PRES   REMARKS
CUT BANK       CLOUDY    50  34  54 W6        29.67F
GREAT FALLS    CLEAR     55  34  45 S5        29.67S
HELENA         PTCLDY    52  36  55 CALM      29.72S
MALMSTROM AFB  PTCLDY    55  36  49 SW12      29.68R
* CONRAD       MOCLDY    39  34  82 N/A        N/A
* DEARBORN     N/A       44  36  74 SW1        N/A
* EAST GLACIER N/A       54  32  43 W11        N/A
* MONARCH      N/A       53  30  41 S8         N/A
* PENDROY      N/A       55  35  47 SW4G9      N/A
* ROGERS PASS  N/A       49  31  50 NW3        N/A
* SAINT MARY   N/A       57  32  39 S6G13      N/A
* SWEET GRASS  N/A       60  26  27 W6         N/A
* WHITE SULPH  N/A       46  32  58 NE7G15     N/A
$$

MTZ011-013-016-021-035-040-045-047-050-051-211200-
NORTH CENTRAL MONTANA
CITY           SKY/WX    TMP DP  RH WIND       PRES   REMARKS
HAVRE          CLEAR     36  34  92 W7        29.64S WCI  30
LEWISTOWN      CLEAR     59  36  42 S13       29.72F
* CHINOOK      CLEAR     45  37  74 E7        29.63S
* FORT BENTON  PTCLDY    45  34  65 CALM      29.66R
* CHESTER      N/A       39  29  67 N2         N/A
* DENTON       N/A       50  37  61 S9         N/A
* GEYSER       N/A       59  36  42 S17        N/A
* JUDITH GAP   N/A       46  36  68 S4         N/A
* LOMA         N/A       45  34  65 W2         N/A
$$

MTZ017>020-022>027-061-062-211200-
NORTHEAST MONTANA
CITY           SKY/WX    TMP DP  RH WIND       PRES   REMARKS
GLASGOW        CLEAR     46  36  68 E13       29.68F
GLENDIVE       CLEAR     43  37  79 N5        29.76S
JORDAN         CLEAR     36  30  79 CALM      29.70F
SIDNEY         CLEAR     37  36  96 NW3       29.77S
WOLF POINT     CLEAR     37  34  89 E7        29.72F WCI  32
* BEAVER HILL  N/A       49  41  74 SE5G10     N/A
* CIRCLE       N/A       51  41  69 N/A        N/A
* LINDSAY DVD  N/A       49  41  74 E2         N/A
* NAVAJO       N/A       45  40  83 SW8        N/A
$$

MTZ028>042-056>058-211200-
SOUTHCENTRAL AND SOUTHEAST MONTANA
CITY           SKY/WX    TMP DP  RH WIND       PRES   REMARKS
BAKER          CLEAR     41  37  86 E6        29.77F
BILLINGS       CLEAR     55  28  35 SW15      29.75F
LIVINGSTON     CLEAR     46  34  63 W6        29.78S
MILES CITY     CLEAR     45  37  74 NE6       29.73F
* LAUREL APT   CLEAR     46  27  48 N/A        N/A
* ROUNDUP APT  PTCLDY    46  28  50 SW6        N/A
* ALZADA       N/A       47  37  68 E3         N/A
* HYSHAM       N/A       58  27  31 W6         N/A
* LAME DEER    N/A       67  32  27 N/A        N/A
* REED POINT   N/A       35  34  96 E2         N/A
* ROSCOE HILL  N/A       56  24  29 N2G7       N/A
$$

REGIONAL REPORTS...DAKOTAS
CITY           SKY/WX    TMP DP  RH WIND       PRES   REMARKS
WILLISTON      CLEAR     39  36  89 NE3       29.76F
DICKINSON      CLEAR     39  34  82 SE12      29.78S WCI  32
BEACH          N/A       41  39  93 S6        29.78S
CROSBY         CLEAR     46  39  77 S12       29.77S
TIOGA          CLEAR     43  37  79 SE7       29.82F
BISMARCK       CLEAR     54  36  51 SE13      29.86F
GRAND FORKS    CLEAR     39  37  93 S10       30.04R WCI  32
FARGO          CLEAR     43  37  79 SE14      30.05S
BUFFALO SD     CLEAR     48  39  71 S6        29.73F
RAPID CITY     CLEAR     48  39  71 SE3       29.84F
$$

REGIONAL REPORTS...WYOMING/IDAHO/WASHINGTON
CITY           SKY/WX    TMP DP  RH WIND       PRES   REMARKS
GILLETTE       CLEAR     57  34  42 SW21      29.83S
SHERIDAN       CLEAR     43  30  60 W6        29.79F
CODY           CLEAR    N/A N/A N/A S7        29.84F
YELLOWSTONE LA CLEAR     28  27  96 NW3       30.01F
SALMON         CLOUDY    52  43  72 S5        29.74R
MULLAN PASS    FOG       37  37 100 NW8       29.84S VSB 1/2  WCI  31
SAND POINT     CLOUDY    50  45  83 S6        29.82S
SPOKANE        CLOUDY    48  45  89 S8        29.84S
$$

REGIONAL REPORTS...ALBERTA
CITY           SKY/WX    TMP DP  RH WIND       PRES   REMARKS
CALGARY        MOCLDY    45  32  60 N9        29.65R
LETHBRIDGE     MOCLDY    50  37  61 SW9       29.64F
MEDICINE HAT   FAIR      39  36  89 SW3       29.62F
EDMONTON       MOCLDY    41  36  82 W3        29.59R
WATERTON GATE  N/A       52  36  55 SW7        N/A
CARDSTON       N/A       48  36  63 SW5        N/A
MILK RIVER     N/A       46  34  63 W6         N/A
$$

REGIONAL REPORTS...SASKATCHEWAN
CITY           SKY/WX    TMP DP  RH WIND       PRES   REMARKS
SWIFT CURRENT  CLEAR     50  39  66 S12       29.65F
MOOSE JAW      N/A       37  36  96 E9        29.67S WCI  30
REGINA         N/A       45  41  86 SE14      29.71S
VAL MARIE      N/A       37  36  96 NE3        N/A
ASSINIBOIA     N/A       41  36  82 SE8        N/A
CORONACH       N/A       37  36  96 SE3        N/A

$$




USA.gov is the U.S. government's official web portal to all federal, state and local government web resources and services.